When you browse on this site, cookies collect data to enhance your experience and personalize the content and advertising you see.
Visit our Privacy Policy to learn more. By continuing to use the site, you agree to this use of cookies and data.
  • In Hungary
  • List of Countries
  • For 7 days
  • Water Temperature
  • Weather Map
  • News
  • Weather Widgets
  • user-avatar
    Login

    Hourly Weather Balotra

    Today, 22 February, Saturday

    Time Temperature Precipitation Wind Pressure Humidity
    00:00 +21°C° 0 mm 3 mps 754 mmHg 34%
    01:00 +20°C° 0 mm 3 mps 754 mmHg 37%
    02:00 +20°C° 0 mm 3 mps 754 mmHg 40%
    03:00 +19°C° 0 mm 3 mps 754 mmHg 43%
    04:00 +19°C° 0 mm 3 mps 754 mmHg 46%
    05:00 +18°C° 0 mm 3 mps 754 mmHg 50%
    06:00 +18°C° 0 mm 3 mps 754 mmHg 52%
    07:00 +19°C° 0 mm 4 mps 755 mmHg 55%
    08:00 +19°C° 0 mm 4 mps 756 mmHg 57%
    09:00 +21°C° 0 mm 4 mps 756 mmHg 50%
    10:00 +25°C° 0 mm 5 mps 755 mmHg 43%
    11:00 +27°C° 0 mm 5 mps 755 mmHg 36%
    12:00 +28°C° 0 mm 5 mps 755 mmHg 31%
    13:00 +29°C° 0 mm 5 mps 754 mmHg 27%
    14:00 +32°C° 0 mm 4 mps 753 mmHg 22%
    15:00 +32°C° 0 mm 4 mps 753 mmHg 22%
    16:00 +32°C° 0 mm 4 mps 753 mmHg 21%
    17:00 +32°C° 0 mm 4 mps 752 mmHg 20%
    18:00 +29°C° 0 mm 4 mps 753 mmHg 23%
    19:00 +27°C° 0 mm 4 mps 753 mmHg 26%
    20:00 +26°C° 0 mm 4 mps 754 mmHg 29%
    21:00 +25°C° 0 mm 4 mps 754 mmHg 32%
    22:00 +23°C° 0 mm 4 mps 754 mmHg 34%
    23:00 +23°C° 0 mm 4 mps 754 mmHg 36%

    Tomorrow, 23 February, Sunday

    Time Temperature Precipitation Wind Pressure Humidity
    00:00 +22°C° 0 mm 4 mps 754 mmHg 39%
    01:00 +21°C° 0 mm 3 mps 753 mmHg 43%
    02:00 +21°C° 0 mm 3 mps 753 mmHg 46%
    03:00 +20°C° 0 mm 3 mps 753 mmHg 48%
    04:00 +20°C° 0 mm 3 mps 752 mmHg 49%
    05:00 +19°C° 0 mm 3 mps 752 mmHg 51%
    06:00 +20°C° 0 mm 3 mps 753 mmHg 50%
    07:00 +20°C° 0 mm 3 mps 753 mmHg 49%
    08:00 +21°C° 0 mm 4 mps 754 mmHg 48%
    09:00 +23°C° 0 mm 5 mps 754 mmHg 43%
    10:00 +26°C° 0 mm 5 mps 754 mmHg 38%
    11:00 +29°C° 0 mm 6 mps 754 mmHg 34%
    12:00 +30°C° 0 mm 5 mps 753 mmHg 30%
    13:00 +32°C° 0 mm 5 mps 752 mmHg 27%
    14:00 +33°C° 0 mm 5 mps 752 mmHg 23%
    15:00 +33°C° 0 mm 5 mps 751 mmHg 22%
    16:00 +33°C° 0 mm 4 mps 751 mmHg 21%
    17:00 +33°C° 0 mm 4 mps 750 mmHg 20%
    18:00 +30°C° 0 mm 4 mps 751 mmHg 22%
    19:00 +28°C° 0 mm 4 mps 751 mmHg 25%
    20:00 +27°C° 0 mm 3 mps 751 mmHg 27%
    21:00 +26°C° 0 mm 3 mps 752 mmHg 28%
    22:00 +25°C° 0 mm 3 mps 752 mmHg 30%
    23:00 +25°C° 0 mm 3 mps 752 mmHg 31%

    Day after tomorrow, 24 February, Monday

    Time Temperature Precipitation Wind Pressure Humidity
    00:00 +24°C° 0 mm 3 mps 751 mmHg 33%
    01:00 +22°C° 0 mm 3 mps 751 mmHg 35%
    02:00 +21°C° 0 mm 2 mps 751 mmHg 36%
    03:00 +21°C° 0 mm 2 mps 751 mmHg 38%
    04:00 +20°C° 0 mm 2 mps 750 mmHg 39%
    05:00 +20°C° 0 mm 2 mps 750 mmHg 41%
    06:00 +20°C° 0 mm 2 mps 751 mmHg 39%
    07:00 +21°C° 0 mm 2 mps 751 mmHg 38%
    08:00 +23°C° 0 mm 2 mps 752 mmHg 36%
    09:00 +25°C° 0 mm 3 mps 752 mmHg 31%
    10:00 +28°C° 0 mm 3 mps 752 mmHg 26%
    11:00 +30°C° 0 mm 4 mps 752 mmHg 21%
    12:00 +31°C° 0 mm 3 mps 751 mmHg 19%
    13:00 +31°C° 0 mm 2 mps 750 mmHg 18%
    14:00 +32°C° 0 mm 2 mps 749 mmHg 16%
    15:00 +32°C° 0 mm 2 mps 749 mmHg 16%
    16:00 +32°C° 0 mm 2 mps 749 mmHg 16%
    17:00 +32°C° 0 mm 2 mps 748 mmHg 16%
    18:00 +30°C° 0 mm 2 mps 749 mmHg 19%
    19:00 +28°C° 0 mm 2 mps 749 mmHg 21%
    20:00 +26°C° 0 mm 1 mps 750 mmHg 24%
    21:00 +26°C° 0 mm 2 mps 750 mmHg 23%
    22:00 +26°C° 0 mm 3 mps 750 mmHg 22%
    23:00 +26°C° 0 mm 3 mps 750 mmHg 22%

    25 February, Tuesday

    Time Temperature Precipitation Wind Pressure Humidity
    00:00 +25°C° 0 mm 3 mps 749 mmHg 23%
    01:00 +24°C° 0 mm 3 mps 749 mmHg 24%
    02:00 +23°C° 0 mm 2 mps 749 mmHg 25%
    03:00 +23°C° 0 mm 2 mps 749 mmHg 26%
    04:00 +22°C° 0 mm 1 mps 749 mmHg 28%
    05:00 +21°C° 0 mm 1 mps 749 mmHg 29%
    06:00 +23°C° 0 mm 1 mps 749 mmHg 27%
    07:00 +24°C° 0 mm 1 mps 750 mmHg 25%
    08:00 +25°C° 0 mm 1 mps 750 mmHg 23%
    09:00 +28°C° 0 mm 2 mps 750 mmHg 21%
    10:00 +30°C° 0 mm 3 mps 750 mmHg 18%
    11:00 +33°C° 0 mm 3 mps 750 mmHg 15%
    12:00 +34°C° 0 mm 3 mps 750 mmHg 14%
    13:00 +34°C° 0 mm 3 mps 749 mmHg 14%
    14:00 +35°C° 0 mm 4 mps 748 mmHg 13%
    15:00 +35°C° 0 mm 3 mps 747 mmHg 13%
    16:00 +35°C° 0 mm 3 mps 747 mmHg 13%
    17:00 +35°C° 0 mm 3 mps 747 mmHg 12%
    18:00 +32°C° 0 mm 2 mps 747 mmHg 14%
    19:00 +30°C° 0 mm 2 mps 748 mmHg 16%
    20:00 +28°C° 0 mm 2 mps 748 mmHg 18%
    21:00 +27°C° 0 mm 3 mps 749 mmHg 21%
    22:00 +27°C° 0 mm 3 mps 749 mmHg 24%
    23:00 +26°C° 0 mm 3 mps 749 mmHg 26%

    26 February, Wednesday

    Time Temperature Precipitation Wind Pressure Humidity
    00:00 +25°C° 0 mm 3 mps 749 mmHg 28%
    01:00 +24°C° 0 mm 2 mps 748 mmHg 30%
    02:00 +23°C° 0 mm 2 mps 748 mmHg 32%
    03:00 +23°C° 0 mm 2 mps 748 mmHg 33%
    04:00 +22°C° 0 mm 1 mps 748 mmHg 34%
    05:00 +21°C° 0 mm 1 mps 748 mmHg 34%
    06:00 +23°C° 0 mm 1 mps 748 mmHg 31%
    07:00 +24°C° 0 mm 1 mps 749 mmHg 28%
    08:00 +24°C° 0 mm 0 mps 749 mmHg 25%
    09:00 +28°C° 0 mm 1 mps 749 mmHg 22%
    10:00 +30°C° 0 mm 1 mps 750 mmHg 18%
    11:00 +32°C° 0 mm 1 mps 750 mmHg 14%
    12:00 +34°C° 0 mm 2 mps 749 mmHg 13%
    13:00 +35°C° 0 mm 2 mps 748 mmHg 12%
    14:00 +36°C° 0 mm 2 mps 748 mmHg 10%
    15:00 +36°C° 0 mm 2 mps 747 mmHg 10%
    16:00 +36°C° 0 mm 2 mps 747 mmHg 10%
    17:00 +36°C° 0 mm 2 mps 747 mmHg 10%
    18:00 +32°C° 0 mm 2 mps 748 mmHg 12%
    19:00 +30°C° 0 mm 1 mps 748 mmHg 14%
    20:00 +26°C° 0 mm 0 mps 749 mmHg 16%
    21:00 +27°C° 0 mm 1 mps 749 mmHg 19%
    22:00 +27°C° 0 mm 2 mps 749 mmHg 22%
    23:00 +27°C° 0 mm 3 mps 749 mmHg 25%

    27 February, Thursday

    Time Temperature Precipitation Wind Pressure Humidity
    00:00 +26°C° 0 mm 3 mps 749 mmHg 27%
    01:00 +25°C° 0 mm 2 mps 749 mmHg 29%
    02:00 +24°C° 0 mm 2 mps 748 mmHg 31%
    03:00 +23°C° 0 mm 1 mps 748 mmHg 32%
    04:00 +23°C° 0 mm 1 mps 748 mmHg 33%
    05:00 +22°C° 0 mm 1 mps 748 mmHg 34%
    06:00 +23°C° 0 mm 1 mps 748 mmHg 31%
    07:00 +25°C° 0 mm 1 mps 749 mmHg 29%
    08:00 +26°C° 0 mm 1 mps 750 mmHg 27%
    09:00 +28°C° 0 mm 1 mps 750 mmHg 24%
    10:00 +31°C° 0 mm 1 mps 750 mmHg 20%
    11:00 +33°C° 0 mm 1 mps 750 mmHg 17%
    12:00 +35°C° 0 mm 2 mps 749 mmHg 15%
    13:00 +36°C° 0 mm 2 mps 748 mmHg 13%
    14:00 +38°C° 0 mm 2 mps 747 mmHg 11%
    15:00 +38°C° 0 mm 2 mps 747 mmHg 11%
    16:00 +38°C° 0 mm 2 mps 747 mmHg 10%
    17:00 +38°C° 0 mm 2 mps 746 mmHg 10%
    18:00 +36°C° 0 mm 2 mps 747 mmHg 11%
    19:00 +32°C° 0 mm 2 mps 747 mmHg 13%
    20:00 +30°C° 0 mm 2 mps 747 mmHg 15%
    21:00 +29°C° 0 mm 3 mps 747 mmHg 19%
    22:00 +28°C° 0 mm 3 mps 748 mmHg 23%
    23:00 +27°C° 0 mm 3 mps 748 mmHg 27%
    Show more